TimeCST,TemperatureF,Dew PointF,Humidity,Sea Level PressureIn,VisibilityMPH,Wind Direction,Wind SpeedMPH,Gust SpeedMPH,PrecipitationIn,Events,Conditions,WindDirDegrees,DateUTC
12:52 AM,46.9,34.0,61,30.24,9.0,SSE,10.4,-,N/A,,Clear,160,2012-11-19 06:52:00
1:52 AM,48.0,34.0,58,30.23,10.0,South,8.1,-,N/A,,Clear,170,2012-11-19 07:52:00
2:52 AM,44.1,34.0,68,30.24,9.0,ESE,4.6,-,N/A,,Clear,120,2012-11-19 08:52:00
3:52 AM,42.1,34.0,73,30.23,8.0,SE,5.8,-,N/A,,Clear,130,2012-11-19 09:52:00
4:52 AM,43.0,34.0,71,30.22,8.0,SE,6.9,-,N/A,,Clear,140,2012-11-19 10:52:00
5:52 AM,42.1,34.0,73,30.22,8.0,SSE,8.1,-,N/A,,Clear,150,2012-11-19 11:52:00
6:52 AM,43.0,34.0,71,30.20,9.0,SE,8.1,-,N/A,,Clear,130,2012-11-19 12:52:00
7:52 AM,44.1,34.0,68,30.22,7.0,SE,4.6,-,N/A,,Clear,140,2012-11-19 13:52:00
8:52 AM,46.0,35.1,66,30.22,8.0,SSE,9.2,-,N/A,,Scattered Clouds,150,2012-11-19 14:52:00
9:52 AM,48.9,36.0,61,30.21,9.0,SSE,9.2,-,N/A,,Overcast,160,2012-11-19 15:52:00
10:52 AM,51.1,39.0,63,30.20,10.0,South,11.5,-,N/A,,Overcast,180,2012-11-19 16:52:00
11:52 AM,52.0,42.1,69,30.17,10.0,South,13.8,-,N/A,,Mostly Cloudy,190,2012-11-19 17:52:00
12:52 PM,53.1,43.0,69,30.14,10.0,South,13.8,-,N/A,,Scattered Clouds,170,2012-11-19 18:52:00
1:16 PM,51.8,42.8,71,30.13,10.0,South,13.8,-,N/A,,Overcast,170,2012-11-19 19:16:00
1:52 PM,51.1,44.1,77,30.12,9.0,South,12.7,20.7,N/A,,Overcast,170,2012-11-19 19:52:00
2:23 PM,51.8,44.6,76,30.10,9.0,SSE,13.8,-,N/A,,Overcast,160,2012-11-19 20:23:00
2:52 PM,51.1,44.1,77,30.10,9.0,SSE,12.7,-,N/A,,Mostly Cloudy,160,2012-11-19 20:52:00
3:26 PM,51.8,44.6,76,30.10,9.0,South,9.2,-,N/A,,Overcast,180,2012-11-19 21:26:00
3:35 PM,51.8,44.6,76,30.10,9.0,South,8.1,-,N/A,,Overcast,170,2012-11-19 21:35:00
3:52 PM,51.1,44.1,77,30.11,9.0,South,9.2,-,N/A,,Overcast,170,2012-11-19 21:52:00
4:42 PM,48.2,42.8,82,30.10,7.0,SSE,5.8,-,N/A,,Overcast,160,2012-11-19 22:42:00
4:52 PM,48.9,43.0,80,30.12,8.0,South,3.5,-,N/A,,Overcast,170,2012-11-19 22:52:00
5:16 PM,50.0,42.8,76,30.10,9.0,South,8.1,-,N/A,,Overcast,180,2012-11-19 23:16:00
5:36 PM,50.0,42.8,76,30.11,8.0,South,6.9,-,N/A,,Overcast,190,2012-11-19 23:36:00
5:52 PM,50.0,43.0,77,30.12,8.0,South,8.1,-,N/A,,Overcast,190,2012-11-19 23:52:00
6:52 PM,50.0,43.0,77,30.12,8.0,South,8.1,-,N/A,,Overcast,190,2012-11-20 00:52:00
7:52 PM,50.0,44.1,80,30.12,8.0,South,4.6,-,N/A,,Overcast,190,2012-11-20 01:52:00
8:18 PM,48.2,42.8,82,30.10,8.0,South,6.9,-,N/A,,Overcast,170,2012-11-20 02:18:00
8:52 PM,48.9,43.0,80,30.11,8.0,South,6.9,-,N/A,,Overcast,180,2012-11-20 02:52:00
9:52 PM,48.9,43.0,80,30.10,8.0,South,8.1,-,N/A,,Overcast,190,2012-11-20 03:52:00
10:52 PM,50.0,43.0,77,30.09,8.0,South,5.8,-,N/A,,Overcast,190,2012-11-20 04:52:00
11:52 PM,48.9,44.1,83,30.08,8.0,South,5.8,-,N/A,,Overcast,190,2012-11-20 05:52:00